Ogallala, NE

9:08 PM MDT on August 27, 2016 (GMT -0600)
Searle

Weather History for KOGA - January, 2014

Change the Weather History Date:

Monday, January 6, 2014

  Actual Average Record
Temperature  
Mean Temperature 8 °F -  
Max Temperature 27 °F 33 °F 65 °F (1954)
Min Temperature -12 °F 8 °F -17 °F (1974)
Degree Days  
Heating Degree Days 58    
Moisture  
Dew Point -2 °F    
Average Humidity 63    
Maximum Humidity 74    
Minimum Humidity 39    
Precipitation  
Precipitation 0.00 in - - ()
Sea Level Pressure  
Sea Level Pressure 30.24 in    
Wind  
Wind Speed 6 mph (West)    
Max Wind Speed 17 mph    
Max Gust Speed 16 mph    
Visibility 10 miles    
Events      
Averages and records for this station are not official NWS values.
T = Trace of Precipitation, MM = Missing Value Source: NWS Daily Summary

Daily Weather History Graph

Daily Weather History Graph

Search for Another Location

Airport or City:

Trip Planner

Search our weather history database for the weather conditions in past years. The results will help you decide how hot, cold, wet, or windy it might be!

Date:

Astronomy

Jan. 06, 2014 Rise Set
Actual Time 7:12 AM MST 4:33 PM MST
Civil Twilight 6:41 AM MST 5:04 PM MST
Nautical Twilight 6:07 AM MST 5:39 PM MST
Astronomical Twilight 5:33 AM MST 6:12 PM MST
Moon 10:25 AM MST (1/6) 11:13 PM MST (1/6)
Length of Visible Light 10h 23m
Length of Day
9h 21m
Waxing Crescent, 35% of the Moon is Illuminated
Jan 6
Waxing Crescent
Jan 7
First Quarter
Jan 15
Full
Jan 23
Last Quarter
Jan 30
New

Hourly Weather History & Observations

Time (MST) Temp. Windchill Dew Point Humidity Pressure Visibility Wind Dir Wind Speed Gust Speed Precip Events Conditions
12:15 AM -4.9 °F -21.3 °F -16.6 °F 57% 30.37 in 10.0 mi West 9.2 mph - N/A   Clear
12:35 AM -7.4 °F -18.6 °F -17.1 °F 63% 30.37 in 10.0 mi West 4.6 mph - N/A   Clear
12:55 AM -9.0 °F -25.2 °F -18.2 °F 64% 30.36 in 10.0 mi West 8.1 mph - N/A   Clear
1:15 AM -8.5 °F -23.2 °F -16.8 °F 67% 30.35 in 10.0 mi West 6.9 mph - N/A   Clear
1:35 AM -10.1 °F -25.1 °F -18.4 °F 67% 30.35 in 10.0 mi WNW 6.9 mph - N/A   Clear
1:55 AM -11.2 °F -24.8 °F -18.6 °F 70% 30.36 in 10.0 mi West 5.8 mph - N/A   Clear
2:15 AM -11.0 °F -27.6 °F -18.4 °F 70% 30.36 in 10.0 mi West 8.1 mph - N/A   Clear
2:35 AM -8.9 °F -25.0 °F -17.3 °F 66% 30.36 in 10.0 mi West 8.1 mph - N/A   Clear
2:55 AM -12.3 °F -27.7 °F -19.3 °F 71% 30.35 in 10.0 mi West 6.9 mph - N/A   Clear
3:15 AM -10.1 °F -23.6 °F -17.5 °F 70% 30.35 in 10.0 mi WSW 5.8 mph - N/A   Clear
3:35 AM -10.5 °F -28.1 °F -17.5 °F 71% 30.34 in 10.0 mi West 9.2 mph - N/A   Clear
3:55 AM -10.5 °F -25.6 °F -17.5 °F 71% 30.33 in 10.0 mi West 6.9 mph - N/A   Clear
4:15 AM -8.9 °F -22.1 °F -16.1 °F 71% 30.32 in 10.0 mi WNW 5.8 mph - N/A   Clear
4:35 AM -7.8 °F -22.3 °F -15.3 °F 70% 30.33 in 10.0 mi WNW 6.9 mph - N/A   Clear
4:55 AM -6.5 °F -23.3 °F -14.4 °F 69% 30.33 in 10.0 mi West 9.2 mph - N/A   Clear
5:15 AM -6.9 °F -15.7 °F -14.8 °F 68% 30.32 in 10.0 mi West 3.5 mph - N/A   Clear
5:35 AM -8.0 °F -22.5 °F -15.5 °F 70% 30.32 in 10.0 mi West 6.9 mph - N/A   Clear
5:55 AM -8.1 °F -19.4 °F -15.5 °F 70% 30.32 in 10.0 mi West 4.6 mph - N/A   Clear
6:15 AM -8.3 °F -21.4 °F -15.0 °F 73% 30.32 in 10.0 mi West 5.8 mph - N/A   Clear
6:35 AM -8.7 °F -21.9 °F -15.5 °F 72% 30.32 in 10.0 mi West 5.8 mph - N/A   Clear
6:55 AM -9.2 °F -18.4 °F -16.1 °F 72% 30.33 in 10.0 mi North 3.5 mph - N/A   Clear
7:15 AM -9.9 °F - -16.4 °F 73% 30.34 in 10.0 mi Calm Calm - N/A   Clear
7:35 AM -8.5 °F - -15.7 °F 71% 30.35 in 10.0 mi Calm Calm - N/A   Clear
7:55 AM -8.3 °F -17.3 °F -15.5 °F 71% 30.34 in 10.0 mi WSW 3.5 mph - N/A   Clear
8:15 AM -7.1 °F -18.1 °F -14.4 °F 70% 30.35 in 10.0 mi West 4.6 mph - N/A   Clear
8:35 AM -3.6 °F -15.9 °F -11.4 °F 69% 30.36 in 10.0 mi WSW 5.8 mph - N/A   Clear
8:55 AM -1.3 °F -15.7 °F -10.3 °F 66% 30.36 in 10.0 mi West 8.1 mph - N/A   Clear
9:15 AM 0.1 °F -15.1 °F -8.9 °F 66% 30.36 in 10.0 mi West 9.2 mph - N/A   Clear
9:35 AM 2.1 °F -9.0 °F -7.1 °F 66% 30.36 in 10.0 mi WSW 5.8 mph - N/A   Clear
9:55 AM 4.6 °F - -7.1 °F 58% 30.35 in 10.0 mi Calm Calm - N/A   Clear
10:15 AM 7.5 °F -1.1 °F -6.9 °F 52% 30.35 in 10.0 mi North 4.6 mph - N/A   Clear
10:35 AM 7.7 °F -2.4 °F -7.1 °F 51% 30.35 in 10.0 mi WNW 5.8 mph - N/A   Clear
10:55 AM 9.0 °F 2.4 °F -5.6 °F 52% 30.32 in 10.0 mi NNW 3.5 mph - N/A   Clear
11:15 AM 10.4 °F 2.2 °F -5.1 °F 50% 30.31 in 10.0 mi WSW 4.6 mph - N/A   Clear
11:35 AM 11.8 °F 2.5 °F -4.0 °F 49% 30.29 in 10.0 mi West 5.8 mph - N/A   Clear
11:55 AM 13.5 °F 3.3 °F -2.4 °F 49% 30.28 in 10.0 mi WNW 6.9 mph - N/A   Clear
12:15 PM 14.4 °F 2.4 °F -1.3 °F 50% 30.25 in 10.0 mi NW 9.2 mph - N/A   Clear
12:35 PM 14.9 °F 5.0 °F -1.1 °F 49% 30.25 in 10.0 mi North 6.9 mph - N/A   Clear
12:55 PM 16.0 °F 10.4 °F -0.9 °F 47% 30.24 in 10.0 mi NNW 3.5 mph - N/A   Clear
1:15 PM 18.0 °F - 1.2 °F 48% 30.23 in 10.0 mi Calm Calm - N/A   Clear
1:35 PM 20.7 °F 14.2 °F 2.8 °F 46% 30.22 in 10.0 mi NNW 4.6 mph - N/A   Clear
1:55 PM 23.0 °F 15.8 °F 5.2 °F 47% 30.21 in 10.0 mi NNW 5.8 mph - N/A   Clear
2:15 PM 25.2 °F 15.7 °F 3.9 °F 40% 30.21 in 10.0 mi WNW 9.2 mph 16.1 mph N/A   Clear
2:35 PM 26.1 °F 17.6 °F 4.8 °F 40% 30.20 in 10.0 mi West 8.1 mph - N/A   Clear
2:55 PM 26.4 °F 19.8 °F 4.1 °F 39% 30.20 in 10.0 mi West 5.8 mph - N/A   Mostly Cloudy
3:15 PM 27.5 °F 21.1 °F 6.1 °F 40% 30.19 in 10.0 mi West 5.8 mph - N/A   Overcast
3:35 PM 23.5 °F 19.1 °F 6.8 °F 49% 30.18 in 10.0 mi South 3.5 mph - N/A   Mostly Cloudy
3:55 PM 22.6 °F 18.0 °F 7.9 °F 53% 30.18 in 10.0 mi SE 3.5 mph - N/A   Scattered Clouds
4:15 PM 22.1 °F 15.9 °F 7.9 °F 54% 30.17 in 10.0 mi South 4.6 mph - N/A   Overcast
4:35 PM 23.0 °F 18.4 °F 9.3 °F 56% 30.16 in 10.0 mi WSW 3.5 mph - N/A   Overcast
4:55 PM 23.9 °F - 10.0 °F 56% 30.16 in 10.0 mi Calm Calm - N/A   Overcast
5:15 PM 23.9 °F - 10.6 °F 57% 30.15 in 10.0 mi Calm Calm - N/A   Overcast
5:35 PM 22.1 °F - 11.8 °F 65% 30.16 in 10.0 mi Calm Calm - N/A   Overcast
5:55 PM 23.0 °F - 12.2 °F 63% 30.14 in 10.0 mi Calm Calm - N/A   Overcast
6:15 PM 23.9 °F - 13.5 °F 64% 30.14 in 10.0 mi Calm Calm - N/A   Overcast
6:35 PM 24.8 °F 19.1 °F 14.9 °F 66% 30.14 in 10.0 mi SSW 4.6 mph - N/A   Overcast
6:55 PM 24.4 °F 20.1 °F 15.8 °F 70% 30.13 in 10.0 mi SW 3.5 mph - N/A   Overcast
7:15 PM 24.8 °F 17.9 °F 15.4 °F 68% 30.12 in 10.0 mi SW 5.8 mph - N/A   Overcast
7:35 PM 23.2 °F 15.0 °F 15.4 °F 72% 30.11 in 10.0 mi WSW 6.9 mph - N/A   Overcast
7:55 PM 24.8 °F 15.3 °F 15.6 °F 68% 30.09 in 10.0 mi WSW 9.2 mph - N/A   Overcast
8:15 PM 24.4 °F 13.0 °F 14.0 °F 65% 30.09 in 10.0 mi WSW 12.7 mph - N/A   Scattered Clouds
8:35 PM 22.8 °F 11.5 °F 13.5 °F 67% 30.09 in 10.0 mi West 11.5 mph - N/A   Clear
8:55 PM 19.2 °F 9.3 °F 11.8 °F 73% 30.08 in 10.0 mi West 8.1 mph - N/A   Clear
9:15 PM 19.2 °F 11.3 °F 11.8 °F 73% 30.07 in 10.0 mi WSW 5.8 mph - N/A   Clear
9:35 PM 18.7 °F 11.9 °F 11.7 °F 74% 30.07 in 10.0 mi West 4.6 mph - N/A   Clear
9:55 PM 18.9 °F 9.8 °F 11.5 °F 73% 30.06 in 10.0 mi WSW 6.9 mph - N/A   Clear
10:15 PM 19.9 °F 8.6 °F 12.2 °F 72% 30.06 in 10.0 mi WSW 10.4 mph - N/A   Clear
10:35 PM 19.9 °F 7.3 °F 12.0 °F 71% 30.05 in 10.0 mi West 12.7 mph - N/A   Clear
10:55 PM 18.7 °F 7.0 °F 11.3 °F 73% 30.04 in 10.0 mi WSW 10.4 mph - N/A   Clear
11:15 PM 18.3 °F 6.6 °F 11.1 °F 73% 30.03 in 10.0 mi West 10.4 mph - N/A   Clear
11:35 PM 19.4 °F 6.0 °F 11.1 °F 70% 30.02 in 10.0 mi West 13.8 mph - N/A   Clear
11:55 PM 19.9 °F 5.2 °F 11.1 °F 69% 30.01 in 10.0 mi West 17.3 mph - N/A   Clear